This is the latest recevied weather packets stored in our database for station/object N8SDR. If no packets are shown the sender has not sent any weather packets the latest 10 day(s).
| Time | Temp. | Humidity | Pressure | Rain* | Wind** | Luminosity | Snow |
|---|---|---|---|---|---|---|---|
| 1777647746 | 9.44° C | 94% | 1009.2 hPa | 0 mm | - | 173 W/m² | - |
| 1777647443 | 9.44° C | 95% | 1009.2 hPa | 0 mm | - | 183 W/m² | - |
| 1777647141 | 8.89° C | 94% | 1009.3 hPa | 0 mm | - | 155 W/m² | - |
| 1777646837 | 8.89° C | 95% | 1009 hPa | 0 mm | - | 100 W/m² | - |
| 1777646533 | 8.89° C | 94% | 1009.1 hPa | 0 mm | - | 59 W/m² | - |
| 1777646229 | 8.89° C | 94% | 1009.1 hPa | 0 mm | - | 52 W/m² | - |
| 1777645927 | 8.89° C | 93% | 1009.2 hPa | 0 mm | - | 64 W/m² | - |
| 1777645623 | 8.89° C | 93% | 1009.1 hPa | 0 mm | - | 113 W/m² | - |
| 1777645319 | 8.89° C | 92% | 1009 hPa | 1.27 mm | - | 55 W/m² | - |
| 1777645015 | 8.89° C | 91% | 1009 hPa | 3.05 mm | - | 42 W/m² | - |
| 1777644712 | 8.89° C | 89% | 1008.7 hPa | 3.05 mm | - | 50 W/m² | - |
| 1777644409 | 9.44° C | 86% | 1008.8 hPa | 1.27 mm | - | 46 W/m² | - |
| 1777644105 | 10° C | 84% | 1008.8 hPa | 0 mm | - | 32 W/m² | - |
| 1777643802 | 10° C | 83% | 1008.9 hPa | 0 mm | - | 24 W/m² | - |
| 1777643499 | 10° C | 83% | 1008.7 hPa | 0 mm | - | 31 W/m² | - |
| 1777643196 | 10° C | 83% | 1008.6 hPa | 0 mm | - | 49 W/m² | - |
| 1777642893 | 10° C | 83% | 1008.8 hPa | 0 mm | - | 43 W/m² | - |
| 1777642590 | 10° C | 83% | 1008.6 hPa | 0 mm | - | 57 W/m² | - |
| 1777642286 | 10° C | 83% | 1008.8 hPa | 0 mm | - | 32 W/m² | - |
| 1777641983 | 10° C | 83% | 1008.6 hPa | 0 mm | - | 39 W/m² | - |
| 1777641679 | 10° C | 82% | 1008.5 hPa | 0 mm | - | 46 W/m² | - |
| 1777641374 | 10° C | 82% | 1008.7 hPa | 0 mm | - | 52 W/m² | - |
| 1777641069 | 9.44° C | 82% | 1008.8 hPa | 0 mm | - | 54 W/m² | - |
| 1777640765 | 9.44° C | 83% | 1008.8 hPa | 0 mm | - | 53 W/m² | - |
| 1777640463 | 9.44° C | 82% | 1008.7 hPa | 0 mm | - | 45 W/m² | - |
* Rain latest hour (hover to see other rain measurements)
** Current wind speed in m/s (hover to see current wind gust speed)